This demonstration page uses our WeatherBlox Daily Observations layout. Learn more.

Left ArrowRight Arrow

Hourly Observations for January 24, 2016

Temp ( °F °C ) Dew Point ( °F °C ) Humidity (%) Winds ( mph kmh ) Pressure ( in mb ) Visibility ( mi km ) Precip ( " mm )
12:51 am 00:51 Clear 42 5.6 25 -3.9 51 51 undefined N/A 29.87 1012 10 16 N/A
1:51 am 01:51 Clear 39 3.9 25 -3.9 57 57 VRB 5 7 29.86 1011 10 16 N/A
2:51 am 02:51 Clear 37 2.8 25 -3.9 62 62 NE 3 6 29.85 1011 10 16 N/A
3:51 am 03:51 Clear 34 1.1 24 -4.4 67 67 N N/A 29.85 1011 10 16 N/A
4:51 am 04:51 Clear 34 1.1 24 -4.4 67 67 N N/A 29.86 1011 10 16 N/A
5:51 am 05:51 Clear 34 1.1 24 -4.4 67 67 N N/A 29.88 1012 10 16 N/A
6:51 am 06:51 Clear 31 -0.6 23 -5 72 72 SSE 6 9 29.91 1013 10 16 N/A
7:51 am 07:51 Sunny 35 1.7 24 -4.4 64 64 ESE 6 9 29.92 1013 10 16 N/A
8:51 am 08:51 Sunny 43 6.1 26 -3.3 51 51 WNW 6 9 29.94 1014 10 16 N/A
9:51 am 09:51 Sunny 51 10.6 24 -4.4 35 35 WNW 7 11 29.94 1014 10 16 N/A
10:51 am 10:51 Sunny 55 12.8 24 -4.4 30 30 WSW 8 13 29.93 1014 10 16 N/A
11:51 am 11:51 Sunny 60 15.6 28 -2.2 30 30 W 16 26 29.90 1013 10 16 N/A
12:51 pm 12:51 Sunny 63 17.2 30 -1.1 29 29 WNW 15 24 29.86 1011 10 16 N/A
1:51 pm 13:51 Sunny 63 17.2 29 -1.7 28 28 NNW 20 31 29.85 1011 10 16 N/A
2:51 pm 14:51 Sunny 63 17.2 21 -6.1 20 20 WNW 22 35 29.84 1011 10 16 N/A
3:51 pm 15:51 Sunny 62 16.7 22 -5.6 21 21 W 26 43 29.85 1011 10 16 N/A
4:51 pm 16:51 Sunny 60 15.6 22 -5.6 23 23 W 22 35 29.87 1011 10 16 N/A
5:51 pm 17:51 Clear 56 13.3 23 -5 28 28 WNW 14 22 29.89 1012 10 16 N/A
6:51 pm 18:51 Clear 52 11.1 25 -3.9 35 35 NW 13 20 29.94 1014 10 16 N/A
7:51 pm 19:51 Clear 50 10 25 -3.9 38 38 NNW 12 19 29.96 1015 10 16 N/A
8:51 pm 20:51 Clear 49 9.4 25 -3.9 39 39 NNW 13 20 29.97 1015 10 16 N/A
9:51 pm 21:51 Clear 47 8.3 25 -3.9 42 42 N 8 13 29.96 1015 10 16 N/A
10:51 pm 22:51 Clear 43 6.1 25 -3.9 49 49 N 6 9 29.96 1015 10 16 N/A
11:51 pm 23:51 Clear 41 5 26 -3.3 55 55 SE 3 6 29.97 1015 10 16 N/A

Powered by AerisWeather